"startDT [UTC]","vpos","CH4 [ppm]","stdev(CH4) [ppm]","CO2 [ppm]","stdev(CO2) [ppm]","H2O_reported [%]","stdev(H2O_reported)","CavityPressure [torr]","CavityTemp [C]","OutletValve","CH4_dry [ppm]","CO2_dry [ppm]","DasTemp [C]","EtalonTemp [C]","WarmBoxTemp [C]","MPVPosition","T_ECpre [C]","T_EC1 [C]","T_EC2 [C]","p_inlet [hPa]","p_in [hPa]","p_out [hPa]","T_inlet [C]","RH_inlet [%]","dwpt_inlet [C]","T_vent [C]","RH_vent [%]","dwpt_vent [C]","flow_vent [l min-1]","flow_inlet [l min-1]","dwpt_sample [C]","T_room [C]"
2015-04-17 00:00:00,0.0,1.93051,0.00077,405.102,0.050,0.1410,0.0010,139.999,44.996,32443.77942,1.93324,405.790,33.998,45.066,44.999,0.00,0.09,-272.72,-272.77,3,681,-5,23.5,3.8,-21.5,23.4,3.4,-22.8,5.73,1.87,-14.6,27.9
2015-04-17 00:01:00,0.0,1.92991,0.00046,405.056,0.053,0.1420,0.0015,140.002,44.996,32439.00758,1.93257,405.747,33.742,45.066,44.999,0.00,0.09,-272.72,-272.78,4,682,-5,23.4,3.8,-21.5,23.4,3.4,-22.7,5.73,1.92,-14.6,27.7
2015-04-17 00:02:00,0.0,1.93049,0.00064,405.120,0.041,0.1423,0.0020,139.998,44.996,32430.25640,1.93322,405.815,33.478,45.066,44.999,0.00,0.09,-272.71,-272.78,4,682,-5,23.4,3.8,-21.5,23.4,3.5,-22.7,5.73,1.68,-14.6,27.7
2015-04-17 00:03:00,0.0,1.93042,0.00029,405.059,0.052,0.1425,0.0014,139.996,44.996,32420.09168,1.93314,405.757,33.217,45.066,44.999,0.00,0.09,-272.72,-272.78,3,683,-5,23.4,3.8,-21.5,23.3,3.5,-22.6,5.73,1.66,-14.6,27.7
2015-04-17 00:04:00,0.0,1.93028,0.00026,405.061,0.053,0.1430,0.0016,140.000,44.996,32412.93942,1.93298,405.757,32.998,45.066,44.999,0.00,0.09,-272.72,-272.77,3,683,-5,23.3,3.8,-21.5,23.3,3.5,-22.6,5.73,1.94,-14.6,27.7
2015-04-17 00:05:00,0.0,1.93046,0.00024,405.084,0.038,0.1426,0.0016,139.997,44.996,32404.74002,1.93320,405.781,32.786,45.067,44.999,0.00,0.09,-272.72,-272.78,4,684,-5,23.2,3.9,-21.5,23.3,3.5,-22.5,5.73,1.85,-14.6,27.6
2015-04-17 00:06:00,0.0,1.93060,0.00029,405.140,0.040,0.1426,0.0018,140.000,44.997,32397.70278,1.93330,405.836,32.622,45.067,45.000,0.00,0.09,-272.72,-272.78,4,683,-5,23.3,3.8,-21.6,23.2,3.5,-22.5,5.73,1.61,-14.7,27.6
2015-04-17 00:07:00,0.0,1.93037,0.00030,405.121,0.028,0.1439,0.0013,140.000,44.996,32392.08096,1.93313,405.822,32.462,45.067,45.000,0.00,0.09,-272.72,-272.78,3,683,-5,23.2,3.9,-21.5,23.2,3.6,-22.4,5.73,1.84,-14.7,27.5
2015-04-17 00:08:00,0.0,1.93032,0.00030,405.151,0.026,0.1433,0.0018,139.997,44.997,32383.72094,1.93302,405.855,32.347,45.067,45.000,0.00,0.09,-272.72,-272.78,3,683,-5,23.2,3.9,-21.5,23.1,3.6,-22.4,5.73,1.93,-14.7,27.3
2015-04-17 00:09:00,0.0,1.93044,0.00042,405.160,0.039,0.1419,0.0019,140.001,44.998,32378.21617,1.93314,405.851,32.267,45.067,45.000,0.00,0.09,-272.72,-272.78,4,683,-5,23.1,3.9,-21.5,23.1,3.6,-22.3,5.73,1.60,-14.7,27.1
2015-04-17 00:10:00,0.0,1.93043,0.00030,405.210,0.044,0.1412,0.0016,139.998,44.999,32376.24747,1.93314,405.900,32.250,45.068,45.000,0.00,0.09,-272.72,-272.78,4,683,-5,23.1,3.9,-21.6,23.0,3.6,-22.4,5.73,1.92,-14.7,27.1
2015-04-17 00:11:00,0.0,1.93026,0.00033,405.227,0.030,0.1414,0.0019,140.002,45.000,32374.20274,1.93298,405.919,32.241,45.068,45.000,0.00,0.09,-272.72,-272.78,3,683,-5,23.0,3.9,-21.6,23.0,3.6,-22.3,5.73,1.78,-14.8,27.1
2015-04-17 00:12:00,0.0,1.93055,0.00035,405.234,0.031,0.1406,0.0014,140.001,45.000,32369.95044,1.93321,405.919,32.245,45.068,45.000,0.00,0.09,-272.73,-272.77,5,683,-5,22.9,3.9,-21.7,22.9,3.7,-22.3,5.73,1.74,-14.8,27.1
2015-04-17 00:13:00,0.0,1.93044,0.00030,405.260,0.009,0.1405,0.0016,139.998,45.000,32366.15431,1.93311,405.946,32.254,45.067,44.999,0.00,0.09,-272.72,-272.78,4,682,-5,22.9,3.9,-21.7,22.9,3.7,-22.3,5.73,1.91,-14.8,27.0
2015-04-17 00:14:00,0.0,1.93065,0.00026,405.268,0.039,0.1401,0.0014,139.998,45.000,32364.91109,1.93332,405.952,32.312,45.068,45.000,0.00,0.09,-272.72,-272.77,4,682,-5,22.8,3.9,-21.7,22.8,3.7,-22.3,5.73,1.70,-14.8,27.1
2015-04-17 00:15:00,0.0,1.93068,0.00037,405.309,0.043,0.1409,0.0017,140.000,45.001,32366.00932,1.93338,405.997,32.399,45.068,45.000,0.00,0.09,-272.73,-272.79,4,681,-5,22.8,3.9,-21.7,22.8,3.7,-22.2,5.73,1.87,-14.8,27.1
2015-04-17 00:16:00,0.0,1.93038,0.00033,405.315,0.045,0.1383,0.0011,139.998,45.001,32367.49060,1.93299,405.990,32.517,45.068,45.001,0.00,0.09,-272.72,-272.78,4,681,-5,22.9,3.9,-21.8,22.9,3.7,-22.2,5.73,1.81,-14.8,27.1
2015-04-17 00:17:00,0.0,1.93055,0.00017,405.294,0.030,0.1380,0.0013,139.999,45.001,32371.02592,1.93317,405.970,32.680,45.069,45.001,0.00,0.09,-272.71,-272.78,4,680,-4,22.9,3.8,-21.8,22.9,3.7,-22.2,5.73,1.73,-14.9,27.2
2015-04-17 00:18:00,0.0,1.93126,0.00036,405.310,0.033,0.1387,0.0017,139.999,45.002,32371.15415,1.93388,405.988,32.825,45.069,45.001,0.00,0.09,-272.73,-272.78,4,680,-4,22.9,3.8,-21.8,22.9,3.7,-22.1,5.73,1.96,-14.9,27.2
2015-04-17 00:19:00,0.0,1.93069,0.00053,405.274,0.043,0.1380,0.0015,140.001,45.002,32376.68403,1.93335,405.947,32.994,45.069,45.001,0.00,0.09,-272.72,-272.79,4,680,-5,22.9,3.8,-21.8,22.9,3.7,-22.1,5.73,1.63,-14.9,27.3
2015-04-17 00:20:00,0.0,1.93065,0.00049,405.305,0.032,0.1384,0.0015,140.003,45.002,32380.85733,1.93325,405.982,33.164,45.069,45.001,0.00,0.09,-272.72,-272.78,5,679,-4,22.9,3.8,-21.8,22.9,3.7,-22.0,5.73,1.94,-14.9,27.3
2015-04-17 00:21:00,0.0,1.93087,0.00052,405.248,0.022,0.1394,0.0016,139.999,45.002,32382.71455,1.93359,405.930,33.329,45.069,45.001,0.00,0.09,-272.73,-272.78,3,679,-4,22.9,3.9,-21.7,22.9,3.7,-22.1,5.73,1.78,-14.9,27.4
2015-04-17 00:22:00,0.0,1.93075,0.00039,405.263,0.037,0.1405,0.0021,139.999,45.002,32386.64597,1.93338,405.948,33.476,45.068,45.000,0.00,0.09,-272.73,-272.79,5,679,-5,22.9,3.9,-21.6,23.0,3.7,-22.0,5.73,1.72,-14.9,27.4
2015-04-17 00:23:00,0.0,1.93061,0.00048,405.214,0.032,0.1403,0.0015,140.001,45.002,32391.39650,1.93328,405.901,33.641,45.068,45.000,0.00,0.09,-272.73,-272.79,3,679,-4,23.0,3.9,-21.5,23.0,3.7,-22.0,5.73,1.97,-14.9,27.5
2015-04-17 00:24:00,0.0,1.93091,0.00046,405.171,0.054,0.1428,0.0021,139.998,45.002,32393.84208,1.93361,405.871,33.796,45.068,45.000,0.00,0.09,-272.72,-272.78,5,679,-4,23.0,3.9,-21.4,23.0,3.7,-22.0,5.73,1.66,-14.9,27.5
2015-04-17 00:25:00,0.0,1.93082,0.00025,405.147,0.032,0.1430,0.0013,140.001,45.002,32398.15086,1.93360,405.842,33.941,45.068,45.000,0.00,0.09,-272.73,-272.79,4,678,-4,23.0,4.0,-21.3,23.0,3.7,-22.0,5.73,1.85,-14.9,27.6
2015-04-17 00:26:00,0.0,1.93016,0.00033,405.198,0.027,0.1450,0.0015,140.002,45.002,32400.31269,1.93291,405.906,34.073,45.068,45.000,0.00,0.09,-272.73,-272.78,4,678,-4,23.1,4.0,-21.2,23.1,3.7,-22.0,5.73,1.90,-14.9,27.7
2015-04-17 00:27:00,0.0,1.93068,0.00022,405.152,0.025,0.1479,0.0015,140.002,45.002,32404.91073,1.93351,405.875,34.197,45.068,45.000,0.00,0.09,-272.72,-272.77,4,678,-4,23.1,4.1,-21.0,23.1,3.8,-21.9,5.73,1.64,-14.9,27.7
2015-04-17 00:28:00,0.0,1.93088,0.00063,405.167,0.030,0.1478,0.0015,140.001,45.002,32411.87262,1.93366,405.889,34.328,45.068,45.000,0.00,0.09,-272.72,-272.78,3,678,-5,23.1,4.1,-20.9,23.1,3.8,-21.9,5.73,1.91,-14.9,27.8
2015-04-17 00:29:00,0.0,1.93178,0.00051,405.182,0.046,0.1503,0.0018,140.000,45.002,32419.39871,1.93464,405.915,34.416,45.068,45.000,0.00,0.09,-272.73,-272.78,5,678,-4,23.1,4.1,-20.9,23.1,3.7,-21.9,5.73,1.83,-14.9,27.7
2015-04-17 00:30:00,0.0,1.93157,0.00032,405.202,0.042,0.1492,0.0018,139.997,45.001,32422.32879,1.93441,405.932,34.438,45.067,45.000,0.00,0.09,-272.72,-272.78,3,679,-4,23.1,4.1,-20.9,23.0,3.8,-21.9,5.73,1.68,-14.8,27.5
2015-04-17 00:31:00,0.0,1.93148,0.00043,405.143,0.033,0.1503,0.0020,140.002,45.000,32428.48206,1.93432,405.878,34.345,45.066,44.998,0.00,0.09,-272.72,-272.78,5,680,-4,23.0,4.1,-20.9,22.9,3.8,-22.0,5.73,1.97,-14.8,27.4
2015-04-17 00:32:00,0.0,1.93169,0.00047,405.131,0.041,0.1508,0.0015,139.998,44.997,32424.04872,1.93454,405.869,34.103,45.064,44.995,0.00,0.09,-272.72,-272.79,3,682,-4,22.9,4.2,-20.8,22.8,3.8,-22.0,5.73,1.66,-14.8,27.3
2015-04-17 00:33:00,0.0,1.93190,0.00027,405.171,0.038,0.1526,0.0018,139.998,44.995,32405.40766,1.93482,405.916,33.808,45.062,44.994,0.00,0.09,-272.73,-272.78,5,682,-4,22.8,4.2,-20.8,22.7,3.8,-22.0,5.73,1.87,-14.8,27.2
2015-04-17 00:34:00,0.0,1.93192,0.00033,405.207,0.031,0.1533,0.0020,139.999,44.994,32387.09249,1.93485,405.954,33.544,45.061,44.993,0.00,0.09,-272.72,-272.78,5,682,-4,22.7,4.2,-20.8,22.6,3.8,-22.1,5.73,1.87,-14.9,27.1
2015-04-17 00:35:00,0.0,1.93179,0.00037,405.155,0.060,0.1529,0.0013,139.999,44.993,32370.70853,1.93471,405.906,33.318,45.061,44.994,0.00,0.09,-272.73,-272.78,4,682,-4,22.6,4.3,-20.8,22.4,3.8,-22.1,5.73,1.64,-14.9,27.0
2015-04-17 00:36:00,0.0,1.93192,0.00048,405.164,0.048,0.1534,0.0013,139.998,44.994,32356.56605,1.93481,405.912,33.122,45.063,44.996,0.00,0.09,-272.74,-272.79,5,682,-4,22.5,4.3,-20.7,22.4,3.8,-22.1,5.73,2.00,-14.9,27.0
2015-04-17 00:37:00,0.0,1.93150,0.00046,405.179,0.041,0.1545,0.0010,140.005,44.995,32344.02262,1.93448,405.935,32.978,45.064,44.998,0.00,0.09,-272.72,-272.79,6,682,-4,22.5,4.3,-20.7,22.3,3.9,-22.1,5.73,1.73,-14.9,26.9
2015-04-17 00:38:00,0.0,1.93069,0.00036,405.127,0.043,0.1565,0.0016,139.999,44.996,32331.58969,1.93372,405.894,32.846,45.066,44.999,0.00,0.09,-272.73,-272.78,4,681,-4,22.4,4.4,-20.7,22.3,3.9,-22.1,5.73,1.74,-14.9,26.9
2015-04-17 00:39:00,0.0,1.92997,0.00020,404.986,0.032,0.1564,0.0017,139.998,44.997,32321.10830,1.93294,405.753,32.731,45.067,45.000,0.00,0.09,-272.73,-272.79,5,682,-3,22.4,4.4,-20.7,22.2,3.9,-22.0,5.73,2.01,-14.9,26.8
2015-04-17 00:40:00,0.0,1.93007,0.00039,404.982,0.039,0.1550,0.0020,140.000,44.997,32312.07948,1.93304,405.739,32.635,45.068,45.000,0.00,0.09,-272.72,-272.78,6,682,-3,22.3,4.3,-20.8,22.2,3.9,-22.0,5.73,1.64,-14.9,26.8
2015-04-17 00:41:00,0.0,1.93015,0.00046,404.967,0.028,0.1557,0.0014,139.997,44.997,32300.59135,1.93313,405.730,32.545,45.068,45.001,0.00,0.09,-272.72,-272.77,5,681,-3,22.3,4.4,-20.7,22.1,4.0,-22.0,5.73,1.86,-14.9,26.7
2015-04-17 00:42:00,0.0,1.93002,0.00033,404.992,0.032,0.1575,0.0017,140.001,44.998,32293.65922,1.93299,405.760,32.458,45.068,45.001,0.00,0.09,-272.73,-272.78,4,680,-6,22.2,4.4,-20.6,22.1,4.0,-22.0,5.73,1.94,-14.9,26.7
2015-04-17 00:43:00,0.0,1.93005,0.00025,404.966,0.026,0.1578,0.0020,140.003,44.998,32287.58943,1.93307,405.737,32.400,45.068,45.001,0.00,0.09,-272.73,-272.78,6,682,-3,22.2,4.5,-20.6,22.0,4.0,-21.9,5.73,1.62,-14.9,26.6
2015-04-17 00:44:00,0.0,1.92954,0.00045,404.931,0.038,0.1583,0.0017,139.998,44.998,32282.83914,1.93260,405.706,32.337,45.068,45.000,0.00,0.09,-272.72,-272.78,6,682,-3,22.1,4.5,-20.6,21.9,4.0,-21.9,5.73,1.98,-14.9,26.6
2015-04-17 00:45:00,0.0,1.92952,0.00041,404.937,0.030,0.1588,0.0015,139.999,44.998,32275.29008,1.93254,405.712,32.286,45.068,45.000,0.00,0.09,-272.72,-272.79,5,683,-3,22.0,4.5,-20.5,21.9,4.0,-21.9,5.73,1.80,-14.9,26.5
2015-04-17 00:46:00,0.0,1.92957,0.00039,404.885,0.035,0.1593,0.0009,140.002,44.998,32270.23317,1.93260,405.667,32.227,45.068,45.000,0.00,0.09,-272.72,-272.79,6,682,-3,22.0,4.6,-20.4,21.8,4.1,-21.9,5.73,1.71,-14.8,26.5
2015-04-17 00:47:00,0.0,1.92927,0.00048,404.846,0.027,0.1611,0.0015,139.997,44.999,32268.83723,1.93235,405.632,32.188,45.068,45.000,0.00,0.09,-272.72,-272.78,6,682,-3,21.9,4.6,-20.4,21.8,4.1,-21.9,5.73,2.02,-14.8,26.4
2015-04-17 00:48:00,0.0,1.92905,0.00030,404.851,0.024,0.1621,0.0018,139.998,44.999,32264.64449,1.93216,405.644,32.146,45.068,45.000,0.00,0.09,-272.72,-272.78,5,682,-3,21.9,4.6,-20.3,21.7,4.1,-21.9,5.73,1.65,-14.8,26.4
2015-04-17 00:49:00,0.0,1.92916,0.00033,404.786,0.028,0.1645,0.0020,140.001,44.999,32264.02967,1.93227,405.591,32.110,45.068,45.000,0.00,0.09,-272.73,-272.78,7,682,-3,21.9,4.7,-20.2,21.7,4.1,-21.8,5.73,1.90,-14.8,26.4
2015-04-17 00:50:00,0.0,1.92931,0.00027,404.820,0.020,0.1642,0.0014,140.000,44.999,32259.01300,1.93242,405.621,32.081,45.068,45.000,0.00,0.09,-272.73,-272.79,6,682,-2,21.9,4.7,-20.2,21.7,4.1,-21.8,5.73,1.89,-14.8,26.3
2015-04-17 00:51:00,0.0,1.92913,0.00028,404.809,0.031,0.1641,0.0017,139.999,44.999,32255.93588,1.93229,405.610,32.030,45.068,45.000,0.00,0.09,-272.72,-272.78,5,682,-3,21.9,4.7,-20.1,21.6,4.1,-21.8,5.73,1.65,-14.8,26.3
2015-04-17 00:52:00,0.0,1.92943,0.00038,404.804,0.033,0.1647,0.0015,140.001,44.999,32255.24268,1.93253,405.608,31.963,45.068,45.000,0.00,0.09,-272.74,-272.79,6,682,-2,21.9,4.7,-20.1,21.6,4.2,-21.7,5.73,2.02,-14.8,26.3
2015-04-17 00:53:00,0.0,1.92904,0.00024,404.837,0.033,0.1644,0.0011,139.997,44.999,32252.71863,1.93219,405.639,31.887,45.068,45.000,0.00,0.09,-272.72,-272.79,7,682,-2,21.8,4.7,-20.2,21.6,4.2,-21.7,5.73,1.72,-14.7,26.3
2015-04-17 00:54:00,0.0,1.92903,0.00031,404.864,0.031,0.1637,0.0020,140.001,44.999,32250.03306,1.93215,405.663,31.839,45.068,45.000,0.00,0.09,-272.72,-272.78,5,682,-2,21.8,4.7,-20.2,21.5,4.2,-21.7,5.73,1.79,-14.7,26.3
2015-04-17 00:55:00,0.0,1.92910,0.00035,404.851,0.036,0.1647,0.0011,139.999,44.999,32249.38186,1.93228,405.657,31.771,45.068,45.000,0.00,0.09,-272.73,-272.78,6,682,-2,21.7,4.8,-20.1,21.5,4.2,-21.6,5.73,1.99,-14.7,26.3
2015-04-17 00:56:00,0.0,1.92876,0.00040,404.843,0.032,0.1655,0.0011,139.995,44.999,32246.30017,1.93190,405.650,31.711,45.069,45.001,0.00,0.09,-272.73,-272.78,7,682,-2,21.7,4.8,-20.1,21.5,4.3,-21.6,5.73,1.63,-14.7,26.3
2015-04-17 00:57:00,0.0,1.92873,0.00031,404.844,0.034,0.1649,0.0019,140.001,44.999,32245.79210,1.93184,405.650,31.683,45.069,45.001,0.00,0.09,-272.72,-272.78,6,682,-2,21.7,4.8,-20.1,21.4,4.3,-21.5,5.73,1.95,-14.7,26.2
2015-04-17 00:58:00,0.0,1.92918,0.00050,404.885,0.043,0.1668,0.0012,140.000,44.999,32241.07039,1.93235,405.697,31.638,45.069,45.001,0.00,0.09,-272.72,-272.79,7,682,-2,21.6,4.8,-20.1,21.3,4.3,-21.5,5.73,1.85,-14.7,26.2
2015-04-17 00:59:00,0.0,1.92958,0.00034,404.857,0.039,0.1669,0.0019,140.001,44.999,32237.92507,1.93272,405.676,31.617,45.069,45.001,0.00,0.09,-272.73,-272.79,7,682,-2,21.6,4.8,-20.1,21.3,4.3,-21.5,5.73,1.68,-14.7,26.1
2015-04-17 01:00:00,0.0,1.92980,0.00032,404.764,0.032,0.1658,0.0009,139.999,44.999,32237.92534,1.93299,405.575,31.580,45.069,45.000,0.00,0.09,-272.73,-272.78,6,682,-2,21.6,4.8,-20.1,21.3,4.4,-21.4,5.73,2.03,-14.7,26.1
2015-04-17 01:01:00,0.0,1.92946,0.00027,404.817,0.034,0.1661,0.0016,139.998,44.999,32235.54652,1.93266,405.627,31.551,45.068,45.000,0.00,0.09,-272.71,-272.78,6,682,-2,21.5,4.8,-20.1,21.3,4.4,-21.4,5.73,1.67,-14.7,26.1
2015-04-17 01:02:00,0.0,1.92959,0.00032,404.789,0.039,0.1661,0.0016,140.001,44.999,32235.64398,1.93273,405.601,31.507,45.068,45.000,0.00,0.09,-272.73,-272.79,8,682,-2,21.5,4.9,-20.0,21.3,4.4,-21.3,5.73,1.87,-14.7,26.1
2015-04-17 01:03:00,0.0,1.92988,0.00029,404.780,0.038,0.1682,0.0011,140.001,44.999,32234.39223,1.93305,405.602,31.482,45.068,45.000,0.00,0.09,-272.73,-272.79,6,682,-2,21.5,4.9,-20.0,21.3,4.4,-21.3,5.73,1.92,-14.7,26.1
2015-04-17 01:04:00,0.0,1.92942,0.00036,404.770,0.033,0.1687,0.0014,140.001,45.000,32234.09326,1.93265,405.594,31.443,45.068,45.000,0.00,0.09,-272.72,-272.78,7,682,-2,21.5,4.9,-19.9,21.2,4.4,-21.3,5.73,1.65,-14.7,26.1
2015-04-17 01:05:00,0.0,1.92985,0.00017,404.760,0.026,0.1692,0.0016,140.001,45.000,32232.21959,1.93305,405.588,31.428,45.068,45.000,0.00,0.09,-272.73,-272.78,8,682,-2,21.5,5.0,-19.8,21.2,4.5,-21.2,5.73,2.02,-14.6,26.1
2015-04-17 01:06:00,0.0,1.93034,0.00039,404.710,0.033,0.1714,0.0013,139.998,44.999,32229.54008,1.93356,405.546,31.388,45.068,45.000,0.00,0.09,-272.73,-272.79,6,682,-2,21.4,5.0,-19.8,21.2,4.5,-21.2,5.73,1.70,-14.6,26.0
2015-04-17 01:07:00,0.0,1.93043,0.00042,404.724,0.021,0.1710,0.0013,140.001,45.000,32229.16394,1.93368,405.559,31.376,45.068,45.000,0.00,0.09,-272.73,-272.78,7,682,-2,21.4,5.0,-19.8,21.1,4.5,-21.2,5.73,1.84,-14.6,26.1
2015-04-17 01:08:00,0.0,1.93058,0.00058,404.726,0.040,0.1724,0.0016,140.001,45.000,32231.10381,1.93394,405.570,31.375,45.069,45.000,0.00,0.09,-272.72,-272.78,8,682,-2,21.4,5.0,-19.7,21.1,4.5,-21.1,5.73,1.94,-14.6,26.0
2015-04-17 01:09:00,0.0,1.93012,0.00048,404.710,0.038,0.1737,0.0012,140.000,45.000,32230.64000,1.93343,405.556,31.375,45.069,45.000,0.00,0.09,-272.73,-272.78,6,682,-2,21.4,5.1,-19.6,21.1,4.5,-21.1,5.73,1.64,-14.6,26.0
2015-04-17 01:10:00,0.0,1.93019,0.00031,404.729,0.037,0.1748,0.0024,139.999,45.000,32227.23718,1.93348,405.585,31.371,45.069,45.000,0.00,0.09,-272.73,-272.78,7,682,-2,21.4,5.1,-19.5,21.1,4.6,-21.0,5.73,2.03,-14.6,25.9
2015-04-17 01:11:00,0.0,1.93099,0.00049,404.743,0.032,0.1748,0.0019,139.999,45.000,32227.64315,1.93431,405.597,31.370,45.068,45.000,0.00,0.09,-272.72,-272.78,8,682,-2,21.4,5.1,-19.6,21.1,4.6,-21.0,5.73,1.70,-14.6,26.0
2015-04-17 01:12:00,0.0,1.93095,0.00024,404.725,0.032,0.1736,0.0013,139.998,45.000,32229.37029,1.93423,405.574,31.373,45.068,45.000,0.00,0.09,-272.73,-272.78,6,682,-2,21.4,5.1,-19.6,21.1,4.6,-21.0,5.73,1.86,-14.5,25.9
2015-04-17 01:13:00,0.0,1.93366,0.00229,404.714,0.011,0.1727,0.0009,139.996,45.000,32227.34444,1.93664,405.559,31.347,45.068,45.000,0.00,0.09,-272.73,-272.80,7,682,-2,21.4,5.1,-19.7,21.1,4.6,-20.9,5.73,1.91,-14.5,26.0
2015-04-17 01:14:00,0.0,1.93713,0.00035,404.685,0.033,0.1696,0.0016,139.998,45.000,32226.00386,1.94038,405.515,31.315,45.068,45.000,0.00,0.09,-272.72,-272.78,8,682,-2,21.3,5.0,-19.9,21.1,4.6,-20.9,5.73,1.66,-14.5,25.9
2015-04-17 01:15:00,0.0,1.93717,0.00024,404.677,0.031,0.1696,0.0011,139.999,45.000,32222.39855,1.94041,405.504,31.324,45.068,45.000,0.00,0.09,-272.73,-272.78,6,682,-2,21.3,5.0,-19.9,21.1,4.7,-20.9,5.73,2.03,-14.5,26.0
2015-04-17 01:16:00,0.0,1.93688,0.00044,404.602,0.026,0.1699,0.0020,139.999,45.000,32223.72427,1.94011,405.434,31.372,45.068,45.000,0.00,0.09,-272.73,-272.79,8,682,-2,21.3,5.0,-19.8,21.1,4.7,-20.8,5.73,1.66,-14.5,26.0
2015-04-17 01:17:00,0.0,1.93704,0.00034,404.586,0.025,0.1697,0.0020,140.003,45.000,32225.73109,1.94034,405.415,31.413,45.068,45.000,0.00,0.09,-272.73,-272.78,7,682,-2,21.3,5.0,-19.9,21.1,4.7,-20.8,5.73,1.91,-14.4,26.0
2015-04-17 01:18:00,0.0,1.93695,0.00044,404.585,0.030,0.1694,0.0018,140.005,45.000,32225.56395,1.94011,405.411,31.452,45.068,45.000,0.00,0.09,-272.72,-272.78,6,682,-2,21.3,5.0,-19.9,21.1,4.7,-20.7,5.73,1.84,-14.4,26.0
2015-04-17 01:19:00,0.0,1.93735,0.00045,404.711,0.067,0.1669,0.0016,140.002,45.000,32223.04031,1.94057,405.523,31.500,45.068,45.000,0.00,0.09,-272.73,-272.79,8,682,-2,21.3,4.9,-20.1,21.0,4.7,-20.7,5.73,1.72,-14.4,26.0
2015-04-17 01:20:00,0.0,1.93709,0.00031,404.691,0.022,0.1656,0.0018,139.998,45.000,32222.24664,1.94028,405.500,31.506,45.068,45.000,0.00,0.09,-272.73,-272.79,7,682,-2,21.3,4.9,-20.1,21.0,4.7,-20.7,5.73,2.01,-14.4,26.0
2015-04-17 01:21:00,0.0,1.93736,0.00040,404.761,0.068,0.1628,0.0011,139.999,45.000,32223.87154,1.94042,405.557,31.528,45.068,44.999,0.00,0.09,-272.72,-272.77,7,682,-2,21.3,4.8,-20.3,21.0,4.7,-20.7,5.73,1.63,-14.4,26.0
2015-04-17 01:22:00,0.0,1.93755,0.00041,404.746,0.030,0.1625,0.0021,139.995,45.000,32223.23053,1.94072,405.540,31.566,45.068,45.000,0.00,0.09,-272.73,-272.78,8,682,-2,21.3,4.8,-20.4,21.0,4.8,-20.6,5.73,2.01,-14.4,26.0
2015-04-17 01:23:00,0.0,1.93749,0.00056,404.719,0.026,0.1605,0.0019,140.002,45.000,32224.58903,1.94055,405.504,31.580,45.068,45.000,0.00,0.09,-272.73,-272.79,6,682,-1,21.3,4.7,-20.5,21.0,4.8,-20.6,5.73,1.70,-14.3,26.0
2015-04-17 01:24:00,0.0,1.93724,0.00035,404.736,0.042,0.1590,0.0020,139.998,45.000,32222.89343,1.94028,405.510,31.620,45.068,44.999,0.00,0.09,-272.73,-272.78,7,682,-1,21.3,4.7,-20.5,21.0,4.8,-20.6,5.73,1.88,-14.3,26.0
2015-04-17 01:25:00,0.0,1.93736,0.00068,404.757,0.034,0.1586,0.0015,139.998,45.000,32221.22642,1.94044,405.532,31.625,45.068,44.999,0.00,0.09,-272.72,-272.78,8,682,-1,21.3,4.7,-20.6,21.0,4.8,-20.6,5.73,1.87,-14.3,26.0
2015-04-17 01:26:00,0.0,1.93678,0.00027,404.773,0.030,0.1583,0.0015,140.005,45.000,32221.64631,1.93978,405.546,31.635,45.068,44.999,0.00,0.09,-272.72,-272.79,6,682,-1,21.3,4.7,-20.6,21.0,4.8,-20.6,5.73,1.71,-14.3,26.1
2015-04-17 01:27:00,0.0,1.93677,0.00044,404.758,0.044,0.1574,0.0016,139.999,45.000,32219.73070,1.93977,405.525,31.660,45.068,44.999,0.00,0.09,-272.73,-272.79,8,681,-1,21.3,4.7,-20.6,21.0,4.8,-20.6,5.73,2.01,-14.3,26.1
2015-04-17 01:28:00,0.0,1.93720,0.00034,404.836,0.047,0.1568,0.0016,140.000,45.000,32217.58141,1.94018,405.601,31.684,45.068,44.999,0.00,0.09,-272.71,-272.78,7,681,-1,21.3,4.7,-20.7,21.0,4.8,-20.6,5.73,1.63,-14.3,26.1
2015-04-17 01:29:00,0.0,1.93729,0.00048,404.876,0.040,0.1559,0.0020,140.001,45.000,32219.10005,1.94030,405.638,31.694,45.068,44.999,0.00,0.09,-272.73,-272.78,7,682,-1,21.3,4.7,-20.7,20.9,4.8,-20.6,5.73,2.02,-14.3,26.0
2015-04-17 01:30:00,0.0,1.93693,0.00032,404.938,0.039,0.1555,0.0018,140.004,45.000,32218.27176,1.93992,405.695,31.740,45.068,44.999,0.00,0.09,-272.73,-272.79,8,681,-1,21.3,4.6,-20.8,20.9,4.8,-20.6,5.73,1.67,-14.2,26.0
2015-04-17 01:31:00,0.0,1.93697,0.00037,404.897,0.025,0.1545,0.0019,140.001,45.000,32218.80093,1.93989,405.652,31.749,45.068,44.999,0.00,0.09,-272.73,-272.77,6,682,-1,21.3,4.6,-20.8,20.9,4.8,-20.7,5.73,1.93,-14.2,25.9
2015-04-17 01:32:00,0.0,1.93647,0.00038,405.016,0.121,0.1544,0.0013,139.998,45.000,32219.06363,1.93949,405.773,31.751,45.068,44.999,0.00,0.09,-272.72,-272.79,8,682,-1,21.3,4.6,-20.8,20.9,4.8,-20.7,5.73,1.79,-14.2,25.9
2015-04-17 01:33:00,0.0,1.93662,0.00044,405.017,0.096,0.1546,0.0013,140.001,45.000,32218.33421,1.93952,405.764,31.754,45.068,45.000,0.00,0.09,-272.73,-272.78,8,681,-1,21.3,4.6,-20.9,20.9,4.8,-20.7,5.73,1.80,-14.2,26.0
2015-04-17 01:34:00,0.0,1.93664,0.00061,405.104,0.057,0.1527,0.0015,140.001,45.001,32218.72318,1.93956,405.851,31.767,45.068,45.000,0.00,0.09,-272.72,-272.78,6,682,-1,21.3,4.6,-20.9,20.9,4.7,-20.7,5.73,1.92,-14.2,26.0
2015-04-17 01:35:00,0.0,1.93694,0.00043,405.350,0.100,0.1525,0.0015,140.001,45.000,32210.39879,1.93990,406.097,31.788,45.069,45.000,0.00,0.09,-272.72,-272.77,8,681,-1,21.3,4.5,-21.0,21.0,4.7,-20.7,5.73,1.70,-14.2,26.0
2015-04-17 01:36:00,0.0,1.93671,0.00029,405.219,0.100,0.1514,0.0021,140.002,45.001,32217.29861,1.93960,405.955,31.794,45.069,45.000,0.00,0.09,-272.73,-272.79,6,682,-1,21.3,4.5,-21.0,21.0,4.7,-20.7,5.73,1.98,-14.2,26.0
2015-04-17 01:37:00,0.0,1.93607,0.00054,405.184,0.081,0.1511,0.0019,140.001,45.001,32224.51120,1.93899,405.928,31.799,45.069,45.001,0.00,0.09,-272.73,-272.78,8,682,-1,21.3,4.5,-21.0,21.0,4.7,-20.8,5.73,1.68,-14.1,26.1
2015-04-17 01:38:00,0.0,1.93583,0.00035,405.167,0.026,0.1507,0.0018,140.000,45.002,32232.47314,1.93869,405.902,31.835,45.070,45.002,0.00,0.09,-272.72,-272.78,7,681,-1,21.4,4.5,-21.1,21.0,4.7,-20.8,5.73,1.95,-14.1,26.2
2015-04-17 01:39:00,0.0,1.93605,0.00031,405.169,0.035,0.1496,0.0016,140.006,45.002,32242.18637,1.93892,405.901,31.919,45.071,45.004,0.00,0.09,-272.72,-272.78,7,681,-2,21.4,4.5,-21.1,21.1,4.7,-20.8,5.73,1.74,-14.1,26.3
2015-04-17 01:40:00,0.0,1.93604,0.00032,405.240,0.040,0.1494,0.0028,140.002,45.003,32249.00709,1.93892,405.969,32.038,45.072,45.004,0.00,0.09,-272.72,-272.79,7,681,-2,21.5,4.5,-21.1,21.1,4.7,-20.8,5.73,1.86,-14.1,26.4
2015-04-17 01:41:00,0.0,1.93577,0.00025,405.228,0.031,0.1483,0.0017,139.998,45.003,32258.52014,1.93859,405.953,32.174,45.072,45.004,0.00,0.09,-272.72,-272.78,7,681,-2,21.6,4.4,-21.1,21.2,4.7,-20.8,5.73,1.88,-14.1,26.4
2015-04-17 01:42:00,0.0,1.93629,0.00037,405.224,0.041,0.1485,0.0012,139.999,45.003,32270.61695,1.93912,405.951,32.319,45.072,45.004,0.00,0.09,-272.72,-272.78,7,680,-2,21.6,4.4,-21.1,21.2,4.6,-20.8,5.73,1.70,-14.1,26.5
2015-04-17 01:43:00,0.0,1.93596,0.00046,405.146,0.034,0.1483,0.0019,140.001,45.003,32279.66229,1.93882,405.874,32.472,45.072,45.003,0.00,0.09,-272.73,-272.78,7,680,-2,21.7,4.4,-21.1,21.3,4.6,-20.8,5.73,1.99,-14.1,26.6
2015-04-17 01:44:00,0.0,1.93544,0.00036,405.129,0.032,0.1473,0.0010,140.002,45.003,32290.10134,1.93827,405.846,32.617,45.071,45.002,0.00,0.09,-272.73,-272.78,6,680,-2,21.8,4.4,-21.1,21.3,4.6,-20.8,5.73,1.65,-14.1,26.7
2015-04-17 01:45:00,0.0,1.93570,0.00043,405.137,0.031,0.1480,0.0010,140.002,45.003,32299.71785,1.93851,405.860,32.752,45.070,45.002,0.00,0.09,-272.72,-272.78,7,680,-2,21.8,4.4,-21.1,21.4,4.6,-20.8,5.73,1.92,-14.1,26.8
2015-04-17 01:46:00,0.0,1.93524,0.00033,405.090,0.028,0.1502,0.0020,139.999,45.003,32310.53715,1.93809,405.825,32.906,45.070,45.002,0.00,0.09,-272.73,-272.78,6,679,-2,21.9,4.4,-21.0,21.4,4.6,-20.8,5.73,1.84,-14.1,26.9